Flag for Germany Weather past 2 weeks in Bautzen, Saxony, Germany

Now
53 °F

Overcast.


Feels Like: 53 °F
Forecast: 48 / 71 °F
Wind: 2 mph from Southwest

Location: Goerlitz

Current Time: Apr 26, 2015 at 5:25:00 AM

Latest Report: Apr 26, 2015 at 5:00 AM


Visibility: 14 mi

Pressure: 29.80 "Hg

Humidity: 91%

Dew point: 51 °F

Location of BautzenLocation

Historic Weather in Bautzen — Graph

°F

Bautzen temperature yesterday

Maximum temperature yesterday: 67 °F (at 3:00 PM)
Minimum temperature yesterday: 47 °F (at 6:00 AM)
Average temperature yesterday: 60 °F

Past Weeks' High & Low Weather Summary

 TemperatureHumidityPressure
High70 °F (Apr 11, 4:00 PM)100% (Apr 23, 5:00 AM)30.47 "Hg (Apr 23, 5:00 AM)
Low31 °F (Apr 23, 6:00 AM)19% (Apr 21, 4:00 PM)29.77 "Hg (Apr 25, 7:00 PM)
Average50 °F62%30.12 "Hg
* Reported Apr 11 4:00 AM — Apr 26 4:00 AM, Bautzen, Weather by CustomWeather, © 2015

Note: Actual official high and low records may vary slightly from our data, if they occured in-between our weather recording intervals... More about our weather records

Advertising

Bautzen weather history for previous 24 hours

 ConditionsComfort  
Time TempWeatherWind HumidityBarometerVisibility
4:00 AM
Sun, Apr 26
54 °FLight rain. Overcast.3 mph89%29.80 "Hg11 mi
3:00 AM54 °FLight rain. Overcast.3 mph91%29.80 "Hg9 mi
2:00 AM56 °FLight rain. Overcast.3 mph81%29.80 "Hg25 mi
1:00 AM59 °FOvercast.6 mph69%29.80 "Hg28 mi
12:00 AM60 °FOvercast.6 mph59%29.79 "Hg28 mi
11:00 PM
Sat, Apr 25
59 °FOvercast.2 mph59%29.79 "Hg25 mi
10:00 PM59 °FOvercast.3 mph60%29.79 "Hg25 mi
9:00 PM61 °FOvercast.3 mph52%29.78 "Hg22 mi
8:00 PM64 °FOvercast.8 mph43%29.77 "Hg22 mi
7:00 PM65 °FOvercast.7 mph38%29.77 "Hg19 mi
6:00 PM65 °FOvercast.7 mph39%29.77 "Hg17 mi
5:00 PM66 °FOvercast.8 mph36%29.77 "Hg14 mi
4:00 PM67 °FOvercast.6 mph33%29.77 "Hg13 mi
3:00 PM67 °FOvercast.8 mph36%29.79 "Hg16 mi
2:00 PM66 °FOvercast.7 mph36%29.81 "Hg14 mi
1:00 PM66 °FOvercast.8 mph41%29.83 "Hg13 mi
12:00 PM65 °FOvercast.8 mph43%29.85 "Hg13 mi
11:00 AM63 °FOvercast.7 mph49%29.86 "Hg13 mi
10:00 AM60 °FOvercast.9 mph52%29.87 "Hg12 mi
9:00 AM58 °FPartly sunny.8 mph56%29.87 "Hg11 mi
8:00 AM55 °FScattered clouds.7 mph61%29.88 "Hg11 mi
7:00 AM52 °FPassing clouds.5 mph68%29.88 "Hg13 mi
6:00 AM47 °FPassing clouds.3 mph78%29.89 "Hg9 mi
5:00 AM50 °FPassing clouds.1 mph76%29.89 "Hg9 mi
Weather by CustomWeather, © 2015

See weather overviewHow to use our weather pages